(179545) = 2002 CQ294 = 2005 WQ122

Discovered at Socorro on 2002-02-10 by LINEAR.

Orbit

Orbit type: Main Belt

Note: WebGL enabled browser required.

epoch2024-03-31.0
epoch JD2460400.5
perihelion date2022-09-17.92184
perihelion JD2459840.42184
argument of perihelion (°)41.03974
ascending node (°)12.51010
inclination (°)10.15117
eccentricity0.0444902
perihelion distance (AU)2.9477114
Tisserand w.r.t. Jupiter3.2
ΔV w.r.t. Earth (km/sec)11.1
semimajor axis (AU)3.0849619
mean anomaly (°)101.87738
mean daily motion (°/day)0.18189850
aphelion distance (AU)3.222
period (years)5.42
P-vector [x]0.59634972
P-vector [y]0.68276189
P-vector [z]0.42214122
Q-vector [x]-0.80181639
Q-vector [y]0.48164387
Q-vector [z]0.35370843
absolute magnitude15.48
phase slope0.15
uncertainty0
referenceMPEC 2024-F28
observations used464
oppositions14
arc length (days)8102
first opposition used2002
last opposition used2024
residual rms (arc-secs)0.67
perturbers coarse indicatorM-v
perturbers precise indicator003Ek
first observation date used2002-01-11.0
last observation date used2024-03-18.0
computer nameMPCLINUX
JD of orbit computation2456819.674445
perihelion JD uncertainty (days)4.5247E-04
argument of perihelion uncertainty (°)8.6850E-05
ascending node uncertainty (°)3.4387E-05
inclination uncertainty (°)9.0879E-06
eccentricity uncertainty 7.2220E-08
perihelion distance uncertainty (AU)2.1990E-07
Minimum Orbit Intersection Distances (in AU)
for orbit epoch: 2460400.5, reference: E2024-G38
Mercury2.63152
Venus2.23364
Earth1.96451
Mars1.4235
Jupiter1.95745
Saturn6.13627
Uranus15.3007
Neptune26.8678

Observations

487 total observations over interval: 2002 01 11.38648 – 2024 03 18.168675
These data are available for download (format description).

Date (UT) J2000 RA J2000 Dec Magn Location Ref
2002 01 11.38648 09 17 59.83 +29 58 18.2 19.1 R 699 – Lowell Observatory-LONEOS MPS 162746
2002 01 11.40985 09 17 58.64 +29 58 23.8   699 – Lowell Observatory-LONEOS MPS 162746
2002 01 11.43327 09 17 57.73 +29 58 29.1   699 – Lowell Observatory-LONEOS MPS 162746
2002 01 11.45674 09 17 56.64 +29 58 33.6   699 – Lowell Observatory-LONEOS MPS 162746
2002 02 10.24843 08 50 47.81 +31 16 52.0 19.9   704 – Lincoln Laboratory ETS, New Mexico MPS 54801
2002 02 10.26370 08 50 47.00 +31 16 52.9 19.6   704 – Lincoln Laboratory ETS, New Mexico MPS 54801
2002 02 10.27979 08 50 46.08 +31 16 53.5 20.0   704 – Lincoln Laboratory ETS, New Mexico MPS 54801
2002 02 10.29511 08 50 45.24 +31 16 53.6 20.5   704 – Lincoln Laboratory ETS, New Mexico MPS 54801
2002 02 10.30938 08 50 44.35 +31 16 54.0 20.1   704 – Lincoln Laboratory ETS, New Mexico MPS 54801
2002 02 13.25057 08 48 04.93 +31 17 47.5 20.2   644 – Palomar Mountain/NEAT MPS 54801
2002 02 13.27321 08 48 03.70 +31 17 47.7 19.7   644 – Palomar Mountain/NEAT MPS 54801
2002 02 13.29447 08 48 02.55 +31 17 48.4 20.0   644 – Palomar Mountain/NEAT MPS 54801
2003 04 25.23766 13 28 19.56 -13 28 52.9 20.9 V 691 – Steward Observatory, Kitt Peak-Spacewatch MPS 162746
2003 04 25.26510 13 28 18.18 -13 28 49.1 20.6 V 691 – Steward Observatory, Kitt Peak-Spacewatch MPS 162746
2003 04 25.29166 13 28 16.87 -13 28 45.1 20.4 V 691 – Steward Observatory, Kitt Peak-Spacewatch MPS 162746
2005 08 26.44887 00 28 29.45 -01 42 58.1 20.0   644 – Palomar Mountain/NEAT MPS 162746
2005 08 26.46538 00 28 28.92 -01 42 59.4 20.3   644 – Palomar Mountain/NEAT MPS 162746
2005 08 26.48065 00 28 28.43 -01 43 00.6 20.2   644 – Palomar Mountain/NEAT MPS 162746
2005 09 11.41654 00 18 05.06 -02 12 14.1 19.7 V 691 – Steward Observatory, Kitt Peak-Spacewatch MPS 162746
2005 09 11.43395 00 18 04.23 -02 12 16.5 19.9 V 691 – Steward Observatory, Kitt Peak-Spacewatch MPS 162746
2005 09 11.45137 00 18 03.41 -02 12 18.8 19.9 V 691 – Steward Observatory, Kitt Peak-Spacewatch MPS 162746
2005 09 23.26542 00 08 27.09 -02 38 52.1 20.0 V 703 – Catalina Sky Survey MPS 162746
2005 09 23.27398 00 08 26.55 -02 38 53.9 18.9 V 703 – Catalina Sky Survey MPS 162746
2005 09 23.28257 00 08 26.12 -02 38 53.9 19.6 V 703 – Catalina Sky Survey MPS 162746
2005 09 23.29115 00 08 25.72 -02 38 58.7 18.7 V 703 – Catalina Sky Survey MPS 162746
2005 09 25.24432 00 06 46.88 -02 43 13.7 18.9 R 644 – Palomar Mountain/NEAT MPS 162746
2005 09 25.26609 00 06 45.72 -02 43 16.8 18.7 R 644 – Palomar Mountain/NEAT MPS 162746
2005 09 25.28689 00 06 44.64 -02 43 19.1 19.2 R 644 – Palomar Mountain/NEAT MPS 162746
2005 09 30.26413 00 02 33.97 -02 53 32.3 19.4 R 699 – Lowell Observatory-LONEOS MPS 162746
2005 09 30.28895 00 02 32.75 -02 53 35.4   699 – Lowell Observatory-LONEOS MPS 162746
2005 09 30.31377 00 02 31.46 -02 53 38.0   699 – Lowell Observatory-LONEOS MPS 162746
2005 09 30.33858 00 02 30.27 -02 53 41.5   699 – Lowell Observatory-LONEOS MPS 162746
2005 10 01.21907 00 01 46.58 -02 55 22.0 20.2   704 – Lincoln Laboratory ETS, New Mexico MPS 162746
2005 10 01.22965 00 01 45.97 -02 55 24.2 19.6   704 – Lincoln Laboratory ETS, New Mexico MPS 162746
2005 10 01.24015 00 01 45.41 -02 55 24.1 20.0   704 – Lincoln Laboratory ETS, New Mexico MPS 162746
2005 10 01.25071 00 01 44.89 -02 55 26.3 19.9   704 – Lincoln Laboratory ETS, New Mexico MPS 162746
2005 10 13.27673 23 52 26.86 -03 12 47.3 20.3 V 291 – LPL/Spacewatch II MPS 162746
2005 10 13.28205 23 52 26.62 -03 12 47.7 20.5 V 291 – LPL/Spacewatch II MPS 162746
2005 10 13.28813 23 52 26.36 -03 12 48.2 20.4 V 291 – LPL/Spacewatch II MPS 162746
2005 10 28.20969 23 43 54.40 -03 14 41.5 20.5 V G96 – Mt. Lemmon Survey MPS 162746
2005 10 28.21566 23 43 54.22 -03 14 41.3 20.2 V G96 – Mt. Lemmon Survey MPS 162746
2005 10 28.22150 23 43 54.08 -03 14 41.2 20.2 V G96 – Mt. Lemmon Survey MPS 162746
2005 10 28.22745 23 43 53.90 -03 14 40.9 20.4 V G96 – Mt. Lemmon Survey MPS 162746
2005 11 25.17699 23 40 45.98 -02 07 15.1 20.5 V G96 – Mt. Lemmon Survey MPS 154020
2005 11 25.18330 23 40 46.02 -02 07 13.6 20.5 V G96 – Mt. Lemmon Survey MPS 154020
2005 11 25.18938 23 40 46.09 -02 07 12.1 20.4 V G96 – Mt. Lemmon Survey MPS 154020
2005 11 25.19545 23 40 46.16 -02 07 10.6 20.3 V G96 – Mt. Lemmon Survey MPS 154020
2005 12 02.08486 23 42 38.12 -01 36 50.6 21.1 V G96 – Mt. Lemmon Survey MPS 154020
2005 12 02.09288 23 42 38.26 -01 36 48.3 21.1 V G96 – Mt. Lemmon Survey MPS 154020
2005 12 02.10095 23 42 38.44 -01 36 45.7 20.6 V G96 – Mt. Lemmon Survey MPS 154020
2005 12 02.10895 23 42 38.59 -01 36 43.8 20.6 V G96 – Mt. Lemmon Survey MPS 154020
2006 01 10.10134 00 08 45.97 +02 35 03.4   291 – LPL/Spacewatch II MPS 162746
2006 01 10.10675 00 08 46.26 +02 35 05.7   291 – LPL/Spacewatch II MPS 162746
2006 01 10.11234 00 08 46.57 +02 35 08.5   291 – LPL/Spacewatch II MPS 162746
2006 12 12.31852 06 20 57.39 +37 59 32.1 19.6   704 – Lincoln Laboratory ETS, New Mexico MPS 191956
2006 12 12.33132 06 20 56.61 +37 59 34.7 19.9   704 – Lincoln Laboratory ETS, New Mexico MPS 191956
2006 12 12.34420 06 20 55.83 +37 59 36.6 20.2   704 – Lincoln Laboratory ETS, New Mexico MPS 191956
2006 12 12.35729 06 20 55.03 +37 59 38.0 20.2   704 – Lincoln Laboratory ETS, New Mexico MPS 191956
2006 12 12.37006 06 20 54.28 +37 59 40.8 19.9   704 – Lincoln Laboratory ETS, New Mexico MPS 191956
2008 02 07.42139 12 17 29.29 +03 58 02.6 20.2 V G96 – Mt. Lemmon Survey MPS 236158
2008 02 07.42801 12 17 29.22 +03 58 02.7 20.3 V G96 – Mt. Lemmon Survey MPS 236158
2008 02 07.43458 12 17 29.11 +03 58 03.0 20.0 V G96 – Mt. Lemmon Survey MPS 236158
2008 02 07.44119 12 17 28.89 +03 58 04.5 20.3 V G96 – Mt. Lemmon Survey MPS 236158
2008 03 03.21766 12 03 48.82 +04 48 52.0 20.9 V 691 – Steward Observatory, Kitt Peak-Spacewatch MPS 240640
2008 03 03.23529 12 03 48.06 +04 48 54.3 20.8 V 691 – Steward Observatory, Kitt Peak-Spacewatch MPS 240640
2008 03 03.25294 12 03 47.24 +04 48 57.6 20.5 V 691 – Steward Observatory, Kitt Peak-Spacewatch MPS 240640
2008 03 05.98648 12 01 41.36 +04 56 31.2 19.9 R 224 – Ottmarsheim MPS 240640
2008 03 06.00165 12 01 40.60 +04 56 32.7 20.0 R 224 – Ottmarsheim MPS 240640
2008 03 11.27681 11 57 26.55 +05 11 15.7   704 – Lincoln Laboratory ETS, New Mexico MPS 406865
2008 03 11.28780 11 57 25.99 +05 11 19.1   704 – Lincoln Laboratory ETS, New Mexico MPS 406865
2008 03 11.29876 11 57 25.50 +05 11 20.8   704 – Lincoln Laboratory ETS, New Mexico MPS 406865
2008 03 11.35789 11 57 22.46 +05 11 30.1 19.7 V G96 – Mt. Lemmon Survey MPS 242006
2008 03 11.36735 11 57 21.99 +05 11 31.6 19.0 V G96 – Mt. Lemmon Survey MPS 242006
2008 03 11.37685 11 57 21.49 +05 11 33.3 19.7 V G96 – Mt. Lemmon Survey MPS 242006
2008 03 11.38632 11 57 21.02 +05 11 34.8 19.6 V G96 – Mt. Lemmon Survey MPS 242006
2008 03 14.38026 11 54 52.38 +05 19 48.2 19.2 V 703 – Catalina Sky Survey MPS 242006
2008 03 14.38741 11 54 52.05 +05 19 49.5 19.0 V 703 – Catalina Sky Survey MPS 242006
2008 03 14.39456 11 54 51.62 +05 19 50.5 19.7 V 703 – Catalina Sky Survey MPS 242006
2008 03 14.40170 11 54 51.30 +05 19 52.1 19.8 V 703 – Catalina Sky Survey MPS 242006
2008 04 05.26955 11 37 25.32 +06 05 46.2 20.2 V G96 – Mt. Lemmon Survey MPS 246643
2008 04 05.27847 11 37 24.96 +06 05 47.0 20.3 V G96 – Mt. Lemmon Survey MPS 246643
2008 04 05.28731 11 37 24.56 +06 05 47.5 20.2 V G96 – Mt. Lemmon Survey MPS 246643
2008 04 05.29618 11 37 24.16 +06 05 48.1 20.3 V G96 – Mt. Lemmon Survey MPS 246643
2010 05 19.47909 22 17 01.33 -20 57 28.4   C51 – WISE MPS 329008
2010 05 19.611395 22 17 07.678 -20 57 05.29   C51 – WISE MPS 926589
2010 05 19.743698 22 17 13.66 -20 56 49.8   C51 – WISE MPS 329008
2010 05 19.876002 22 17 19.86 -20 56 33.1   C51 – WISE MPS 329008
2010 05 19.942090 22 17 22.82 -20 56 22.4   C51 – WISE MPS 329008
2010 05 20.008306 22 17 25.88 -20 56 14.4   C51 – WISE MPS 329008
2010 05 20.074395 22 17 29.009 -20 56 04.52   C51 – WISE MPS 926589
2010 05 20.140610 22 17 32.10 -20 55 55.7   C51 – WISE MPS 329008
2010 05 20.47131 22 17 47.15 -20 55 10.8   C51 – WISE MPS 330571
2010 09 12.281538 21 49 24.863 -23 38 20.94 19.75 r F51 – Pan-STARRS 1, Haleakala MPS 365090
